Вернуться в каталог

CENTISPACE-2 S9

АктивенНавигацияLEO
NORAD 68358·PAYLOAD·🇨🇳 China

Запущен Mar 22, 2026 с Yellow Sea Launch Area

Loading…

Ближайшие Пролёты (ближайшие 24 часа)

TLE

СвежийSource: Space-Track

Эпоха: Sep 13, 2026, 22:12 UTC

1 68358U 26060J   26256.92513709 -.00000134  00000-0  98707-5 0  9996
2 68358  54.9798  51.0985 0007128 261.9976  98.0192 14.25316660 25594

Отслеживайте CENTISPACE-2 S9 в реальном времени с AllMySat

Download on the App Store